map of ONO home
ONO - Airport
Location
City:  Ontario, Oregon, United States
Name:Ontario Municipal Airport
ICAO:KONO
IATA:ONO
FAA LID:ONO

Details
Type:Airport (Airfield)
Use:Public/Civil
Latitude:4401'10"N (44.019361)
Longitude:11700'47"W (-117.013027)
Datum:WGS 1984
Elevation:2193 ft (668 m)
Variation:13.57E (WMM2015 magnetic declination)
-0.12 annual change
Runways:1
Longest:5006 × 100 ft (1526 × 30.5 m), paved

Time
Time Zone:UTC-7 (DST-6)
Local Time:

Weather
METAR:KONO 200453Z AUTO 24007KT 10SM CLR M03/M08 A3031 RMK AO2 SLP293 T10331078

Related Locations
Nearby:
Farthest:FTU: 10844 mi / 17452 km
Tolagnaro [Maurillac Airport (Fort Dauphin Airport)], MG

Find:

   beyond  
but within

Other Information
Maps:
NOTAMs:
Links:
Sources:

  
  • flag of United States
  • flag of Oregon
  

Sectional Chart

Flight Planning
at skyvector.com

Satellite Image

Google Maps Satellite view

 

Copyright © 2004-2018 Karl L. Swartz. All rights reserved.
The Great Circle Mapper name and logo are trademarks of the Great Circle Mapper.
All other trademarks mentioned herein belong to their respective owners.
Please see credits for attibutions and further copyright information.

  Follow gcmap on Facebook Follow gcmap on Twitter Follow gcmap on Google+ GCmap on LinkedIn

hCard Microformat

Geo Microformat